This is the latest recevied weather packets stored in our database for station/object GW4288. If no packets are shown the sender has not sent any weather packets the latest 1 day(s).
| Time | Temp. | Humidity | Pressure | Rain* | Wind** | Luminosity | Snow |
|---|---|---|---|---|---|---|---|
| 1778138576 | 17.22° C | 75% | 1011.6 hPa | 0 mm | - | 155 W/m² | - |
| 1778138454 | 17.22° C | 74% | 1011.7 hPa | 0 mm | - | 178 W/m² | - |
| 1778138334 | 16.67° C | 76% | 1011.7 hPa | 0 mm | - | 166 W/m² | - |
| 1778138214 | 16.11° C | 76% | 1011.7 hPa | 0 mm | - | 189 W/m² | - |
| 1778138099 | 16.11° C | 77% | 1011.4 hPa | 0 mm | - | 192 W/m² | - |
| 1778137974 | 15.56° C | 77% | 1011.6 hPa | 0 mm | - | 161 W/m² | - |
| 1778137854 | 15.56° C | 78% | 1011.6 hPa | 0 mm | - | 135 W/m² | - |
| 1778137734 | 15.56° C | 78% | 1011.5 hPa | 0 mm | - | 112 W/m² | - |
| 1778137614 | 15.56° C | 78% | 1011.4 hPa | 0 mm | - | 105 W/m² | - |
| 1778137495 | 15.56° C | 78% | 1011.4 hPa | 0 mm | - | 117 W/m² | - |
| 1778137377 | 16.11° C | 78% | 1011.6 hPa | 0 mm | - | 134 W/m² | - |
| 1778137270 | 16.11° C | 78% | 1011.5 hPa | 0 mm | - | 139 W/m² | - |
| 1778137127 | 15.56° C | 78% | 1011.6 hPa | 0 mm | - | 143 W/m² | - |
| 1778137008 | 15.56° C | 78% | 1011.4 hPa | 0 mm | - | 138 W/m² | - |
| 1778136887 | 15.56° C | 78% | 1011.5 hPa | 0 mm | - | 128 W/m² | - |
| 1778136767 | 15.56° C | 79% | 1011.6 hPa | 0 mm | - | 121 W/m² | - |
| 1778136657 | 15.56° C | 79% | 1011.5 hPa | 0 mm | - | 126 W/m² | - |
| 1778136529 | 15.56° C | 79% | 1011.5 hPa | 0 mm | - | 122 W/m² | - |
| 1778136407 | 15.56° C | 79% | 1011.6 hPa | 0 mm | - | 130 W/m² | - |
| 1778136287 | 15.56° C | 80% | 1011.6 hPa | 0 mm | - | 127 W/m² | - |
| 1778136166 | 15° C | 80% | 1011.4 hPa | 0 mm | - | 113 W/m² | - |
| 1778136057 | 15° C | 80% | 1011.2 hPa | 0 mm | - | 110 W/m² | - |
| 1778135928 | 15.56° C | 79% | 1011.2 hPa | 0 mm | - | 113 W/m² | - |
| 1778135807 | 15.56° C | 79% | 1011.2 hPa | 0 mm | - | 95 W/m² | - |
| 1778135687 | 16.11° C | 79% | 1011.3 hPa | 0 mm | - | 99 W/m² | - |
* Rain latest hour (hover to see other rain measurements)
** Current wind speed in m/s (hover to see current wind gust speed)